Date String (YYYY-MM-DD hh:mm:ss) UTC,Instrument flags,Ambient pressure (hPa),Sample flow (lpm),Bypass flow (lpm),Sample temperature (°C),Ambient temperature (°C),ASC tube jacket temperature (°C),LED temperature (°C),Box temperature (°C),Sample RH (%),Span deviation,Mass concentration (μg/m³),Mass concentration (μg/m³),Mass concentration (μg/m³)
DateTimeUTC,F1_M11,P_M11,Q1_M11,Q2_M11,T1_M11,T2_M11,T3_M11,T4_M11,T5_M11,U1_M11,ZSPAN_M11,X0_M11,X2_M11,X1_M11
2022-03-14 23:00:00,,0829.5,5.00,0.00,28.3,27.6,00.0,37.3,30.0,07.2,0000.0,0008.83,0003.68,0003.16
2022-03-14 23:01:00,,0829.5,5.00,0.00,28.2,27.5,00.0,37.3,30.0,07.2,0000.0,0008.78,0003.66,0003.16
2022-03-14 23:02:00,,0829.5,5.00,0.00,28.2,27.5,00.0,37.2,30.0,07.5,0000.0,0008.64,0003.66,0003.17
2022-03-14 23:03:00,,0829.5,5.00,0.00,28.3,27.6,00.0,37.2,30.0,07.3,0000.0,0007.64,0003.66,0003.19
2022-03-14 23:04:00,,0829.5,4.99,0.00,28.3,27.6,00.0,37.2,30.0,07.4,0000.0,0008.15,0003.65,0003.18
2022-03-14 23:05:00,,0829.5,5.00,0.00,28.3,27.7,00.0,37.3,30.0,07.3,0000.0,0008.50,0003.67,0003.18
2022-03-14 23:06:00,,0829.5,5.00,0.00,28.3,27.7,00.0,37.3,30.0,07.2,0000.0,0008.56,0003.69,0003.19
2022-03-14 23:07:00,,0829.5,5.00,0.00,28.3,27.6,00.0,37.3,29.9,07.2,0000.0,0008.44,0003.67,0003.19
2022-03-14 23:08:00,,0829.5,5.00,0.00,28.2,27.6,00.0,37.3,29.9,07.2,0000.0,0008.64,0003.70,0003.20
2022-03-14 23:09:00,,0829.5,5.00,0.00,28.2,27.6,00.0,37.3,29.9,07.1,0000.0,0008.76,0003.73,0003.20
2022-03-14 23:10:00,,0829.5,5.00,0.00,28.2,27.6,00.0,37.2,30.0,07.2,0000.0,0008.25,0003.73,0003.19
2022-03-14 23:11:00,,0829.5,5.00,0.00,28.2,27.6,00.0,37.3,30.0,07.3,0000.0,0008.31,0003.73,0003.18
2022-03-14 23:12:00,,0829.5,5.00,0.00,28.2,27.6,00.0,37.3,29.9,07.3,0000.0,0009.08,0003.73,0003.18
2022-03-14 23:13:00,,0829.5,4.99,0.00,28.2,27.6,00.0,37.3,29.9,07.4,0000.0,0009.14,0003.72,0003.18
2022-03-14 23:14:00,,0829.6,5.00,0.00,28.2,27.6,00.0,37.2,29.9,07.3,0000.0,0009.24,0003.73,0003.18
2022-03-14 23:15:00,,0829.5,5.00,0.00,28.2,27.6,00.0,37.2,29.9,07.3,0000.0,0008.99,0003.74,0003.18
2022-03-14 23:16:00,,0829.5,4.99,0.00,28.2,27.6,00.0,37.2,29.9,07.5,0000.0,0009.09,0003.72,0003.17
2022-03-14 23:17:00,,0829.5,5.01,0.00,28.2,27.6,00.0,37.2,29.9,07.3,0000.0,0009.00,0003.69,0003.16
2022-03-14 23:18:00,,0829.5,5.01,0.00,28.2,27.5,00.0,37.2,29.9,07.2,0000.0,0009.04,0003.70,0003.15
2022-03-14 23:19:00,,0829.5,4.99,0.00,28.2,27.5,00.0,37.2,29.9,07.2,0000.0,0008.91,0003.68,0003.13
2022-03-14 23:20:00,,0829.5,5.00,0.00,28.2,27.5,00.0,37.2,29.9,07.4,0000.0,0008.65,0003.64,0003.09
2022-03-14 23:21:00,,0829.5,5.00,0.00,28.2,27.6,00.0,37.2,29.9,07.3,0000.0,0008.52,0003.64,0003.07
2022-03-14 23:22:00,,0829.5,5.00,0.00,28.2,27.6,00.0,37.2,29.9,07.3,0000.0,0008.71,0003.72,0003.08
2022-03-14 23:23:00,,0829.5,5.00,0.00,28.2,27.6,00.0,37.2,29.9,07.3,0000.0,0008.12,0003.75,0003.07
2022-03-14 23:24:00,,0829.5,5.00,0.00,28.2,27.5,00.0,37.2,29.9,07.3,0000.0,0008.02,0003.75,0003.07
2022-03-14 23:25:00,,0829.6,5.00,0.00,28.2,27.4,00.0,37.2,29.9,07.2,0000.0,0007.93,0003.74,0003.06
2022-03-14 23:26:00,,0829.6,5.00,0.00,28.2,27.4,00.0,37.2,29.8,07.3,0000.0,0007.44,0003.72,0003.07
2022-03-14 23:27:00,,0829.6,5.00,0.00,28.2,27.4,00.0,37.2,29.9,07.5,0000.0,0007.49,0003.74,0003.07
2022-03-14 23:28:00,,0829.7,5.00,0.00,28.2,27.5,00.0,37.2,29.9,07.3,0000.0,0007.99,0003.77,0003.09
2022-03-14 23:29:00,,0829.5,5.01,0.00,28.2,27.5,00.0,37.2,29.9,07.3,0000.0,0008.20,0003.77,0003.09
2022-03-14 23:30:00,,0829.6,5.01,0.00,28.2,27.4,00.0,37.2,29.9,07.3,0000.0,0008.14,0003.76,0003.10
2022-03-14 23:31:00,,0829.6,5.01,0.00,28.2,27.4,00.0,37.2,29.9,07.3,0000.0,0008.13,0003.77,0003.12
2022-03-14 23:32:00,,0829.6,5.00,0.00,28.2,27.4,00.0,37.2,29.9,07.2,0000.0,0008.12,0003.78,0003.15
2022-03-14 23:33:00,,0829.6,5.00,0.00,28.2,27.4,00.0,37.2,29.9,07.2,0000.0,0007.80,0003.69,0003.16
2022-03-14 23:34:00,,0829.6,5.00,0.00,28.2,27.4,00.0,37.2,29.9,07.3,0000.0,0007.61,0003.64,0003.16
2022-03-14 23:35:00,,0829.6,4.98,0.00,28.2,27.5,00.0,37.2,29.9,07.3,0000.0,0007.66,0003.64,0003.16
2022-03-14 23:36:00,,0829.6,5.00,0.00,28.2,27.5,00.0,37.2,29.9,07.4,0000.0,0007.72,0003.65,0003.15
2022-03-14 23:37:00,,0829.6,5.00,0.00,28.2,27.5,00.0,37.2,29.9,07.5,0000.0,0007.78,0003.68,0003.15
2022-03-14 23:38:00,,0829.6,4.99,0.00,28.2,27.5,00.0,37.2,29.9,07.4,0000.0,0007.55,0003.70,0003.16
2022-03-14 23:39:00,,0829.6,5.00,0.00,28.2,27.5,00.0,37.2,29.9,07.4,0000.0,0007.25,0003.72,0003.16
2022-03-14 23:40:00,,0829.7,5.00,0.00,28.2,27.5,00.0,37.2,29.9,07.3,0000.0,0007.14,0003.75,0003.16
2022-03-14 23:41:00,,0829.7,5.00,0.00,28.2,27.5,00.0,37.2,29.9,07.4,0000.0,0007.35,0003.78,0003.16
2022-03-14 23:42:00,,0829.7,5.00,0.00,28.2,27.5,00.0,37.2,29.9,07.3,0000.0,0007.27,0003.78,0003.18
2022-03-14 23:43:00,,0829.7,5.00,0.00,28.1,27.5,00.0,37.2,29.8,07.3,0000.0,0007.25,0003.77,0003.17
2022-03-14 23:44:00,,0829.7,5.00,0.00,28.1,27.4,00.0,37.2,29.8,07.3,0000.0,0007.53,0003.81,0003.16
2022-03-14 23:45:00,,0829.7,5.00,0.00,28.1,27.4,00.0,37.2,29.8,07.5,0000.0,0007.62,0003.84,0003.16
2022-03-14 23:46:00,,0829.7,5.00,0.00,28.2,27.5,00.0,37.2,29.9,07.5,0000.0,0007.58,0003.83,0003.15
2022-03-14 23:47:00,,0829.7,5.01,0.00,28.2,27.5,00.0,37.2,29.9,07.6,0000.0,0007.53,0003.82,0003.15
2022-03-14 23:48:00,,0829.7,5.00,0.00,28.2,27.5,00.0,37.2,29.9,07.5,0000.0,0007.54,0003.81,0003.16
2022-03-14 23:49:00,,0829.7,5.01,0.00,28.1,27.4,00.0,37.2,29.9,07.6,0000.0,0007.74,0003.83,0003.17
2022-03-14 23:50:00,,0829.6,4.99,0.00,28.1,27.4,00.0,37.2,29.9,07.3,0000.0,0007.56,0003.80,0003.17
2022-03-14 23:51:00,,0829.7,4.99,0.00,28.1,27.5,00.0,37.2,29.9,07.3,0000.0,0007.58,0003.80,0003.18
2022-03-14 23:52:00,,0829.7,5.01,0.00,28.2,27.5,00.0,37.2,29.8,07.4,0000.0,0007.57,0003.78,0003.18
2022-03-14 23:53:00,,0829.7,4.99,0.00,28.2,27.5,00.0,37.2,29.9,07.3,0000.0,0007.59,0003.76,0003.17
2022-03-14 23:54:00,,0829.7,5.00,0.00,28.2,27.5,00.0,37.2,29.9,07.3,0000.0,0007.58,0003.75,0003.17
2022-03-14 23:55:00,,0829.7,5.00,0.00,28.2,27.5,00.0,37.2,29.9,07.3,0000.0,0007.52,0003.77,0003.17
2022-03-14 23:56:00,,0829.7,5.00,0.00,28.2,27.5,00.0,37.2,29.9,07.4,0000.0,0007.41,0003.74,0003.17
2022-03-14 23:57:00,,0829.7,5.00,0.00,28.2,27.5,00.0,37.2,29.9,07.4,0000.0,0007.32,0003.72,0003.16
2022-03-14 23:58:00,,0829.7,5.00,0.00,28.2,27.5,00.0,37.2,29.9,07.4,0000.0,0007.22,0003.70,0003.16
2022-03-14 23:59:00,,0829.8,4.99,0.00,28.2,27.5,00.0,37.2,29.9,07.5,0000.0,0007.34,0003.69,0003.16
